[[{"header":{"parameterUnit":"m.s-1","parameterCategory":1,"la1":30.2991,"la2":30.254,"lo1":-89.0895,"lo2":-89.0444,"dy":0.0017,"dx":0.0017,"nx":28,"ny":28,"refTime":"2025-12-12T03:00:00:Z","depth":0,"parameterNumber":2,"parameterNumberName":"U-component_of_WINDS"},"data":[0,0,0,0,0,0,0,0,0,0,0,0,0,0,0,0,0,0,0,0,0,0,0,0,0,0,0,0,0,0,0,0,0,0,0,0,0,0,0,0,0,0,0,0,0,0,0,0,0,0,0,0,0,0,0,0,0,0,-0.5534,-0.5533,0,-0.5497,-0.5497,-0.5496,-0.5489,-0.5489,-0.5489,-0.549,-0.5453,-0.5451,-0.545,0,0,0,0,0,0,0,0,0,0,0,0,0,-0.5596,-0.5594,-0.5534,-0.5533,-0.5533,-0.5497,-0.5496,-0.5496,-0.5489,-0.5489,-0.549,-0.549,-0.5453,-0.5452,-0.545,0,0,0,0,0,0,0,0,0,0,0,0,0,-0.5565,-0.5594,-0.5534,-0.5525,-0.5524,-0.5497,-0.5496,-0.5496,-0.5489,-0.5489,-0.549,-0.549,-0.5454,-0.5452,-0.545,-0.543,0,0,-0.5444,-0.5443,0,0,0,0,0,0,0,0,-0.5567,-0.5563,-0.5527,-0.5525,-0.5524,-0.5498,-0.5505,-0.5474,-0.5489,-0.5502,-0.549,-0.549,-0.5467,-0.5464,-0.5457,-0.5428,-0.5426,-0.5444,-0.5443,-0.5442,-0.5441,0,0,0,0,0,0,0,-0.5569,-0.5564,-0.5519,-0.5526,-0.5525,-0.5522,-0.5518,-0.5499,-0.5483,-0.5501,-0.55,-0.5496,-0.5467,-0.5458,-0.5456,-0.5426,-0.5444,-0.5442,-0.5441,-0.544,-0.5374,-0.5374,0,0,0,0,0,0,-0.5572,-0.5566,-0.552,-0.5518,-0.5547,-0.5521,-0.5516,-0.5506,-0.5483,-0.548,-0.5496,-0.5496,-0.5461,-0.5458,-0.5454,-0.5426,-0.5442,-0.544,-0.5439,-0.5375,-0.5374,-0.5373,0,0,0,0,0,0,-0.5574,-0.5569,-0.5522,-0.5542,-0.5536,-0.5519,-0.5508,-0.5505,-0.5497,-0.5479,-0.5476,-0.549,-0.5462,-0.5457,-0.5435,-0.5425,-0.5439,-0.5438,-0.5375,-0.5375,-0.5374,-0.5372,0,0,0,0,0,0,-0.5576,-0.5569,-0.5562,-0.5542,-0.5535,-0.5504,-0.5507,-0.5504,-0.5493,-0.5493,-0.5473,-0.547,-0.5462,-0.5438,-0.5433,-0.5423,-0.5436,-0.5376,-0.5375,-0.5374,-0.5373,-0.5371,-0.537,0,0,0,0,0,-0.5578,-0.5564,-0.5562,-0.5556,-0.5525,-0.5503,-0.5499,-0.5489,-0.5493,-0.5485,-0.5473,-0.5471,-0.5427,-0.5435,-0.543,-0.5419,-0.5377,-0.5375,-0.5374,-0.5374,-0.5371,-0.537,0,0,0,0,0,0,-0.5585,-0.5561,-0.5559,-0.5538,-0.5522,-0.5502,-0.5492,-0.5488,-0.5472,-0.5472,-0.5461,-0.5456,-0.5434,-0.5425,-0.5435,-0.5396,-0.5402,-0.5399,-0.5403,-0.5401,-0.54,-0.5402,-0.5435,0,0,0,0,0,-0.5584,-0.5568,-0.5548,-0.5532,-0.5524,-0.5509,-0.5499,-0.5493,-0.5477,-0.547,-0.5457,-0.5441,-0.5423,-0.5412,-0.5395,-0.5371,-0.5365,-0.5361,-0.5359,-0.5358,-0.5356,-0.5339,-0.5336,-0.5369,-0.5369,-0.5369,0,0,-0.5583,-0.5567,-0.5559,-0.5533,-0.552,-0.5503,-0.5504,-0.5487,-0.5473,-0.5468,-0.5445,-0.5434,-0.5416,-0.5392,-0.5381,-0.5383,-0.5345,-0.5356,-0.5355,-0.5354,-0.5337,-0.5334,-0.5331,-0.5368,-0.5368,-0.5368,0,0,-0.557,-0.5558,-0.5541,-0.5528,-0.5508,-0.5497,-0.5493,-0.5472,-0.5465,-0.5442,-0.5436,-0.5419,-0.539,-0.5375,-0.5364,-0.5342,-0.5338,-0.5336,-0.5328,-0.5312,-0.5309,-0.5307,-0.5296,-0.5293,-0.5334,-0.5334,-0.5334,0,-0.5571,-0.5545,-0.5534,-0.5515,-0.5503,-0.5495,-0.5477,-0.5464,-0.544,-0.5431,-0.5434,-0.5394,-0.5381,-0.5352,-0.5346,-0.5338,-0.5331,-0.5339,-0.531,-0.5308,-0.5305,-0.5295,-0.5291,-0.5334,-0.5334,-0.5334,-0.5334,0,-0.5545,-0.5527,-0.5515,-0.549,-0.5477,-0.5459,-0.5443,-0.5431,-0.5424,-0.5413,-0.5388,-0.5371,-0.5349,-0.5342,-0.5336,-0.531,-0.5312,-0.5313,-0.5318,-0.5302,-0.5292,-0.5288,-0.5334,-0.5334,-0.5334,-0.5334,0,0,-0.5539,-0.5504,-0.55,-0.5487,-0.5463,-0.5448,-0.5428,-0.5405,-0.5393,-0.5376,-0.5358,-0.5331,-0.533,-0.5317,-0.531,-0.5295,-0.5275,-0.5297,-0.5297,-0.5292,-0.5242,-0.524,-0.5236,-0.5272,-0.5271,-0.5271,-0.5242,0,-0.5522,-0.5486,-0.5474,-0.5444,-0.5425,-0.5416,-0.5398,-0.538,-0.5368,-0.5349,-0.5336,-0.5316,-0.5318,-0.5309,-0.5295,-0.528,-0.5264,-0.5282,-0.5253,-0.5252,-0.5257,-0.5231,-0.5231,-0.5205,-0.5239,-0.5238,-0.5238,0,-0.5499,-0.5479,-0.5447,-0.542,-0.5412,-0.5397,-0.5372,-0.5356,-0.5334,-0.5326,-0.5309,-0.5301,-0.5278,-0.5285,-0.5251,-0.5263,-0.525,-0.5241,-0.5239,-0.5236,-0.5244,-0.5225,-0.5197,-0.5192,-0.5232,-0.5232,-0.5233,0,-0.5495,-0.546,-0.5435,-0.5424,-0.5394,-0.5383,-0.5369,-0.5348,-0.5334,-0.5312,-0.5302,-0.5279,-0.5266,-0.5247,-0.5232,-0.5239,-0.5199,-0.5205,-0.519,-0.519,-0.5182,-0.5182,-0.5149,-0.5176,-0.5176,-0.5176,-0.5176,0,-0.5477,-0.5457,-0.5432,-0.5417,-0.5393,-0.5378,-0.5355,-0.5341,-0.5321,-0.5301,-0.5292,-0.5274,-0.5256,-0.5235,-0.5223,-0.5195,-0.519,-0.5181,-0.5178,-0.5181,-0.5182,-0.5172,-0.5173,-0.5175,-0.5175,-0.5175,-0.5175,0,-0.5469,-0.5452,-0.5424,-0.5396,-0.5388,-0.5372,-0.5347,-0.5331,-0.5317,-0.5292,-0.5286,-0.5264,-0.5238,-0.5221,-0.5188,-0.518,-0.5149,-0.5147,-0.5156,-0.5154,-0.5139,-0.514,-0.5097,-0.509,-0.5123,-0.5122,-0.5122,0,-0.5459,-0.5443,-0.5412,-0.5398,-0.5384,-0.5362,-0.5346,-0.5329,-0.5313,-0.5284,-0.5271,-0.5244,-0.5222,-0.518,-0.5161,-0.5134,-0.5131,-0.5118,-0.5127,-0.5129,-0.5128,-0.5129,-0.5125,-0.5116,-0.5116,-0.5116,-0.5116,0,-0.5442,-0.5432,-0.5411,-0.5384,-0.5365,-0.5344,-0.5323,-0.5311,-0.529,-0.5272,-0.5245,-0.5227,-0.5192,-0.5164,-0.5135,-0.512,-0.5113,-0.5112,-0.5107,-0.511,-0.5115,-0.5109,-0.515,-0.5114,-0.5114,-0.5114,-0.5114,-0.5114,-0.5431,-0.5415,-0.5389,-0.5364,-0.5345,-0.5324,-0.5306,-0.5289,-0.5266,-0.5235,-0.5226,-0.5196,-0.5171,-0.5131,-0.5115,-0.5091,-0.5092,-0.5085,-0.5083,-0.5082,-0.508,-0.5119,-0.5086,-0.5086,-0.5086,-0.5086,-0.5086,0,-0.5411,-0.5394,-0.537,-0.5339,-0.5318,-0.5312,-0.5287,-0.5269,-0.5243,-0.522,-0.5197,-0.5163,-0.5135,-0.5112,-0.5082,-0.5067,-0.5063,-0.506,-0.506,-0.5056,-0.5082,-0.5088,-0.5063,-0.5063,-0.5063,-0.5063,-0.5063,-0.5063,-0.5399,-0.537,-0.5357,-0.5318,-0.53,-0.5271,-0.5256,-0.5235,-0.5216,-0.5179,-0.5155,-0.5139,-0.5115,-0.5083,-0.5055,-0.5049,-0.5038,-0.5035,-0.5028,-0.5052,-0.5055,-0.5057,-0.5063,-0.5033,-0.5033,-0.5004,-0.5003,-0.5003]},{"header":{"parameterUnit":"m.s-1","parameterCategory":1,"la1":30.2991,"la2":30.254,"lo1":-89.0895,"lo2":-89.0444,"dy":0.0017,"dx":0.0017,"nx":28,"ny":28,"refTime":"2025-12-12T03:00:00:Z","depth":0,"parameterNumber":3,"parameterNumberName":"V-component_of_WINDS"},"data":[0,0,0,0,0,0,0,0,0,0,0,0,0,0,0,0,0,0,0,0,0,0,0,0,0,0,0,0,0,0,0,0,0,0,0,0,0,0,0,0,0,0,0,0,0,0,0,0,0,0,0,0,0,0,0,0,0,0,-0.9504,-0.9504,0,-0.9489,-0.9489,-0.9489,-0.9507,-0.9508,-0.9509,-0.9509,-0.9489,-0.9488,-0.9487,0,0,0,0,0,0,0,0,0,0,0,0,0,-0.9543,-0.9542,-0.9504,-0.9504,-0.9503,-0.9489,-0.9489,-0.9489,-0.9507,-0.9508,-0.9509,-0.951,-0.949,-0.9488,-0.9487,0,0,0,0,0,0,0,0,0,0,0,0,0,-0.9526,-0.9541,-0.9504,-0.9511,-0.9512,-0.9489,-0.9489,-0.9489,-0.9507,-0.9508,-0.9509,-0.951,-0.949,-0.9488,-0.9487,-0.9455,0,0,-0.9481,-0.948,0,0,0,0,0,0,0,0,-0.9527,-0.9525,-0.951,-0.9511,-0.9511,-0.9501,-0.9495,-0.9477,-0.9507,-0.9509,-0.9509,-0.9511,-0.9492,-0.949,-0.9485,-0.9454,-0.9453,-0.9481,-0.948,-0.9479,-0.9479,0,0,0,0,0,0,0,-0.9528,-0.9526,-0.9498,-0.951,-0.951,-0.9513,-0.9512,-0.9492,-0.9494,-0.9508,-0.951,-0.9508,-0.9492,-0.9487,-0.9485,-0.9453,-0.9481,-0.9479,-0.9478,-0.9478,-0.9392,-0.939,0,0,0,0,0,0,-0.9529,-0.9526,-0.9498,-0.9497,-0.9522,-0.9512,-0.951,-0.9503,-0.9495,-0.9495,-0.9507,-0.9509,-0.9489,-0.9487,-0.9484,-0.9444,-0.9479,-0.9477,-0.9476,-0.9393,-0.9391,-0.939,0,0,0,0,0,0,-0.953,-0.9527,-0.9499,-0.9512,-0.9509,-0.951,-0.9502,-0.9502,-0.9497,-0.9494,-0.9494,-0.9501,-0.949,-0.9486,-0.9462,-0.9444,-0.9477,-0.9475,-0.9394,-0.9392,-0.9391,-0.9365,0,0,0,0,0,0,-0.9531,-0.9527,-0.9516,-0.9512,-0.9508,-0.9478,-0.9501,-0.9501,-0.9494,-0.9496,-0.9488,-0.9488,-0.949,-0.9464,-0.946,-0.9442,-0.9474,-0.9396,-0.9393,-0.9391,-0.9368,-0.9363,-0.9359,0,0,0,0,0,-0.9533,-0.9509,-0.9516,-0.9512,-0.9495,-0.9478,-0.9475,-0.948,-0.9493,-0.9481,-0.9479,-0.9488,-0.9447,-0.9461,-0.9457,-0.9438,-0.9397,-0.9394,-0.9391,-0.937,-0.9364,-0.9359,0,0,0,0,0,0,-0.951,-0.9509,-0.9516,-0.9491,-0.9484,-0.9481,-0.9466,-0.9474,-0.9463,-0.9465,-0.947,-0.9468,-0.9441,-0.9437,-0.9454,-0.9405,-0.9424,-0.942,-0.9409,-0.9403,-0.9399,-0.9399,-0.9472,0,0,0,0,0,-0.9502,-0.949,-0.9489,-0.9466,-0.9463,-0.9465,-0.9458,-0.9462,-0.9455,-0.9452,-0.9448,-0.9439,-0.9423,-0.9413,-0.9399,-0.9368,-0.9364,-0.9352,-0.9348,-0.9344,-0.934,-0.932,-0.9314,-0.9381,-0.9381,-0.9381,0,0,-0.9485,-0.9483,-0.9475,-0.9462,-0.9457,-0.9442,-0.9462,-0.9446,-0.9434,-0.9449,-0.9425,-0.9421,-0.9412,-0.9383,-0.937,-0.9378,-0.9321,-0.9341,-0.9338,-0.9335,-0.9316,-0.931,-0.9304,-0.9379,-0.938,-0.938,0,0,-0.9447,-0.9445,-0.9426,-0.9421,-0.9414,-0.9416,-0.9411,-0.9406,-0.9405,-0.9381,-0.9391,-0.9376,-0.9351,-0.9342,-0.9335,-0.9292,-0.9299,-0.9288,-0.9263,-0.9244,-0.9238,-0.9233,-0.9216,-0.9209,-0.9284,-0.9284,-0.9284,0,-0.9426,-0.9406,-0.9414,-0.9397,-0.9389,-0.9403,-0.9382,-0.9376,-0.9365,-0.9358,-0.9369,-0.9336,-0.9331,-0.9299,-0.9288,-0.9283,-0.9275,-0.9288,-0.9239,-0.9234,-0.923,-0.9212,-0.9206,-0.9282,-0.9283,-0.9283,-0.9283,0,-0.938,-0.9365,-0.935,-0.9339,-0.9331,-0.9311,-0.9314,-0.9304,-0.9309,-0.9309,-0.9283,-0.9277,-0.9261,-0.9254,-0.9259,-0.9222,-0.9227,-0.9239,-0.9256,-0.9222,-0.9205,-0.9199,-0.928,-0.9281,-0.9281,-0.9282,0,0,-0.9326,-0.932,-0.9314,-0.9309,-0.9302,-0.929,-0.927,-0.9256,-0.9246,-0.9237,-0.9219,-0.9196,-0.9206,-0.9198,-0.9201,-0.9184,-0.9147,-0.9197,-0.9197,-0.9186,-0.9103,-0.9093,-0.9086,-0.9153,-0.9152,-0.9151,-0.9103,0,-0.9285,-0.9253,-0.926,-0.9227,-0.9212,-0.9225,-0.9207,-0.92,-0.9198,-0.9184,-0.9182,-0.9165,-0.9181,-0.9175,-0.9159,-0.9155,-0.913,-0.9159,-0.9133,-0.9132,-0.9133,-0.9078,-0.9067,-0.9023,-0.9097,-0.9096,-0.9095,0,-0.9234,-0.9225,-0.9191,-0.9185,-0.9179,-0.9163,-0.915,-0.9137,-0.9127,-0.9128,-0.9118,-0.9124,-0.9101,-0.9121,-0.9088,-0.9108,-0.9097,-0.9094,-0.9092,-0.9088,-0.911,-0.9069,-0.9009,-0.9001,-0.9086,-0.9087,-0.9087,0,-0.9195,-0.9174,-0.915,-0.9146,-0.9139,-0.9127,-0.9123,-0.9116,-0.9106,-0.9094,-0.9087,-0.9071,-0.9062,-0.9049,-0.9049,-0.9065,-0.9015,-0.9036,-0.9012,-0.9012,-0.8999,-0.8999,-0.8933,-0.8997,-0.8997,-0.8997,-0.8997,0,-0.9148,-0.9126,-0.9132,-0.9118,-0.9093,-0.9099,-0.9074,-0.9071,-0.9064,-0.9047,-0.9057,-0.904,-0.9044,-0.9026,-0.9026,-0.8997,-0.8994,-0.8991,-0.8991,-0.8989,-0.8989,-0.898,-0.8982,-0.8995,-0.8995,-0.8996,-0.8996,0,-0.9099,-0.9103,-0.9078,-0.9074,-0.9072,-0.9054,-0.9049,-0.9034,-0.9034,-0.9012,-0.9007,-0.9005,-0.8985,-0.8985,-0.8962,-0.8962,-0.8926,-0.893,-0.8929,-0.8929,-0.8904,-0.8905,-0.8828,-0.8817,-0.889,-0.8889,-0.8889,0,-0.9068,-0.9052,-0.9046,-0.9036,-0.9032,-0.9016,-0.9007,-0.9012,-0.9001,-0.8989,-0.8974,-0.8956,-0.8941,-0.8907,-0.8903,-0.8884,-0.8887,-0.8861,-0.8884,-0.8881,-0.8883,-0.8883,-0.8879,-0.8855,-0.8855,-0.8854,-0.8854,0,-0.9011,-0.9014,-0.9001,-0.8988,-0.8976,-0.8966,-0.8956,-0.8947,-0.8951,-0.8938,-0.8919,-0.8907,-0.8883,-0.8863,-0.8845,-0.8838,-0.8845,-0.8847,-0.884,-0.8836,-0.8835,-0.8832,-0.8914,-0.8848,-0.8848,-0.8849,-0.8849,-0.8849,-0.8969,-0.8954,-0.8947,-0.8932,-0.8925,-0.8916,-0.8901,-0.8899,-0.8883,-0.8866,-0.8869,-0.8846,-0.8835,-0.8812,-0.8804,-0.8784,-0.8793,-0.8783,-0.878,-0.8777,-0.8773,-0.884,-0.8781,-0.8781,-0.8781,-0.8781,-0.8782,0,-0.891,-0.8907,-0.8893,-0.8879,-0.8866,-0.8877,-0.8866,-0.8853,-0.8834,-0.8824,-0.8809,-0.8785,-0.8765,-0.8759,-0.8739,-0.8724,-0.8727,-0.8719,-0.8718,-0.8716,-0.8768,-0.8775,-0.8717,-0.8717,-0.8717,-0.8717,-0.8717,-0.8717,-0.8878,-0.8853,-0.8854,-0.8825,-0.8821,-0.88,-0.8793,-0.8783,-0.8775,-0.8748,-0.8732,-0.8729,-0.872,-0.8699,-0.868,-0.8678,-0.8669,-0.8659,-0.8658,-0.8706,-0.8713,-0.8719,-0.8725,-0.8658,-0.8658,-0.8608,-0.8607,-0.8607]}]]